This is the latest recevied weather packets stored in our database for station/object KN6ZYR. If no packets are shown the sender has not sent any weather packets the latest 10 day(s).
| Time | Temp. | Humidity | Pressure | Rain* | Wind** | Luminosity | Snow |
|---|---|---|---|---|---|---|---|
| 1777763803 | 27.78° C | 15% | 1016.7 hPa | 0 mm | - | 437 W/m² | - |
| 1777763501 | 27.78° C | 15% | 1016.6 hPa | 0 mm | - | 412 W/m² | - |
| 1777763199 | 27.78° C | 15% | 1016.6 hPa | 0 mm | - | 474 W/m² | - |
| 1777762897 | 27.22° C | 15% | 1016.5 hPa | 0 mm | - | 506 W/m² | - |
| 1777762593 | 27.78° C | 15% | 1016.7 hPa | 0 mm | - | 502 W/m² | - |
| 1777762291 | 28.33° C | 15% | 1016.8 hPa | 0 mm | - | 452 W/m² | - |
| 1777761986 | 27.78° C | 14% | 1016.6 hPa | 0 mm | - | 598 W/m² | - |
| 1777761683 | 28.89° C | 15% | 1016.7 hPa | 0 mm | - | 270 W/m² | - |
| 1777761381 | 28.33° C | 15% | 1017.2 hPa | 0 mm | - | 598 W/m² | - |
| 1777761079 | 28.33° C | 14% | 1016.8 hPa | 0 mm | - | 561 W/m² | - |
| 1777760776 | 28.33° C | 14% | 1016.8 hPa | 0 mm | - | 553 W/m² | - |
| 1777760472 | 28.89° C | 14% | 1017.1 hPa | 0 mm | - | 572 W/m² | - |
| 1777760168 | 28.89° C | 14% | 1017.4 hPa | 0 mm | - | 627 W/m² | - |
| 1777759866 | 27.78° C | 14% | 1017.4 hPa | 0 mm | - | 630 W/m² | - |
| 1777759561 | 28.33° C | 14% | 1017.4 hPa | 0 mm | - | 673 W/m² | - |
| 1777759258 | 27.78° C | 14% | 1017.4 hPa | 0 mm | - | 579 W/m² | - |
| 1777758955 | 28.33° C | 14% | 1017.7 hPa | 0 mm | - | 697 W/m² | - |
| 1777758652 | 28.33° C | 14% | 1017.7 hPa | 0 mm | - | 542 W/m² | - |
| 1777758349 | 27.78° C | 15% | 1017.6 hPa | 0 mm | - | 666 W/m² | - |
| 1777758047 | 27.78° C | 14% | 1017.9 hPa | 0 mm | - | 611 W/m² | - |
| 1777757743 | 27.78° C | 14% | 1018.1 hPa | 0 mm | - | 706 W/m² | - |
| 1777757441 | 27.78° C | 15% | 1018.1 hPa | 0 mm | - | 684 W/m² | - |
| 1777757140 | 27.78° C | 14% | 1018 hPa | 0 mm | - | 475 W/m² | - |
| 1777756837 | 28.33° C | 14% | 1018.1 hPa | 0 mm | - | 688 W/m² | - |
| 1777756532 | 28.33° C | 14% | 1018.5 hPa | 0 mm | - | 700 W/m² | - |
* Rain latest hour (hover to see other rain measurements)
** Current wind speed in m/s (hover to see current wind gust speed)